Regional Weather Roundup
Issued by NWS

Home | Current Version | Previous Version | Graphics & Text | Print | Product List | Glossary Off
Versions: 1 2 3 4 5 6 7 8 9 10 11 12 13 14 15 16 17 18 19 20 21 22 23 24 25 26 27 28 29 30 31 32 33 34 35 36 37 38 39 40 41 42 43 44 45 46 47 48 49 50

000
ASUS43 KMKX 020700
RWRWI

WISCONSIN REGIONAL WEATHER ROUNDUP
NATIONAL WEATHER SERVICE MILWAUKEE/SULLIVAN WI
200 AM CDT THU OCT 02 2014

NOTE: "FAIR" INDICATES FEW OR NO CLOUDS BELOW 12,000 FEET WITH NO
SIGNIFICANT WEATHER AND/OR OBSTRUCTIONS TO VISIBILITY.

WIZ001-002-006>008-014>016-023>028-020800-
NORTHWEST WISCONSIN

CITY           SKY/WX    TMP DP  RH WIND       PRES   REMARKS
SUPERIOR ARPT  CLOUDY    52  52 100 CALM      29.83S FOG
ASHLAND        CLOUDY    55  54  96 SW3       29.85S
HAYWARD        CLOUDY    55  55 100 S3        29.85S FOG
SIREN          CLOUDY    55  54  97 CALM      29.84S FOG
CUMBERLAND     CLOUDY    54  52  94 E3        29.84S FOG
RICE LAKE      CLOUDY    55  54  95 CALM      29.86S FOG
CHETEK         CLOUDY    55  55  98 CALM      29.84F
LADYSMITH      CLOUDY    53  52  97 CALM      29.87S FOG
EAU CLAIRE     CLOUDY    54  53  97 CALM      29.83S FOG
MENOMONIE      CLOUDY    55  55  97 CALM      29.83F FOG
NEW RICHMOND   CLOUDY    56  56 100 CALM      29.83S FOG
OSCEOLA        CLOUDY    56  56 100 CALM      29.85S FOG
$$

WIZ003>005-009-010-017-018-020800-
NORTH CENTRAL WISCONSIN

CITY           SKY/WX    TMP DP  RH WIND       PRES   REMARKS
MANITOWISH WTR CLOUDY    54  54 100 S6        29.87S
ARBOR VITAE    CLOUDY    57  55  93 S3        29.88S FOG
WOODRUFF       CLOUDY    57  55  93 S3        29.88S FOG
RHINELANDER    CLOUDY    53  51  93 SE3       29.89S
EAGLE RIVER    CLOUDY    53  53  99 CALM      29.88S FOG
LAND O LAKES   CLOUDY    54  52  94 CALM      29.89S FOG
PHILLIPS       CLOUDY    54  53  97 SE3       29.86S
TOMAHAWK       CLOUDY    54  51  92 CALM      29.89R
MEDFORD        CLOUDY    55  53  94 SE3       29.87R
MERRILL        CLOUDY    55  53  95 CALM      29.88S
$$

WIZ029-030-035-036-043>047-020800-
CENTRAL WISCONSIN

CITY           SKY/WX    TMP DP  RH WIND       PRES   REMARKS
WAUSAU         CLOUDY    56  52  86 SE3       29.87S
MOSINEE        CLOUDY    54  54 100 SE3       29.88S
MARSHFIELD     CLOUDY    58  54  86 E5        29.86S
STEVENS POINT  CLOUDY    54  52  95 CALM      29.88R FOG
WAUPACA        MOCLDY    58  56  94 CALM      29.88S FOG
WAUTOMA        NOT AVBL
WISC RAPIDS    CLOUDY    57  55  93 CALM      29.87S
CAMP DOUGLAS   PTCLDY    59  59 100 E5        29.85S
$$

WIZ011>013-019>022-031-037>040-048>050-020800-
NORTHEAST WISCONSIN

CITY           SKY/WX    TMP DP  RH WIND       PRES   REMARKS
ANTIGO         CLOUDY    52  52  99 SE5       29.90R FOG
SHAWANO        CLOUDY    56  54  91 E3        29.89F FOG
OCONTO         CLOUDY    55  55 100 CALM      29.89F
STURGEON BAY   NOT AVBL
GREEN BAY      CLOUDY    57  55  93 CALM      29.89S
MANITOWOC      NOT AVBL
APPLETON       CLOUDY    55  54  94 E3        29.88F
CLINTONVILLE   CLOUDY    54  54 100 CALM      29.89S FOG
OSHKOSH        LGT RAIN  59  56  89 SE6       29.86F
$$

WIZ032>034-041-042-053>061-020800-
SOUTHWEST WISCONSIN

CITY           SKY/WX    TMP DP  RH WIND       PRES   REMARKS
LA CROSSE      CLOUDY    60  57  89 CALM      29.83S
SPARTA         CLOUDY    60  57  91 CALM      29.85S
VIROQUA        CLOUDY    62  58  86 SE6       29.85S
BOSCOBEL       CLOUDY    64  59  83 CALM      29.85R
PRAIRIE DU CHI CLOUDY    64  58  81 CALM      29.83S
PLATTEVILLE    CLOUDY    63  60  90 CALM      29.86R
$$

WIZ056-057-062-063-064-067-068-020800-
SOUTH CENTRAL WISCONSIN

CITY           SKY/WX    TMP DP  RH WIND       PRES   REMARKS
REEDSBURG      CLOUDY    61  56  83 CALM      29.85S
BARABOO/DELLS  CLOUDY    59  54  82 CALM      29.85F
LONE ROCK      MOCLDY    64  57  78 CALM      29.85R
MINERAL POINT  MOCLDY    63  59  88 SE3       29.86S
MADISON        NOT AVBL
MIDDLETON      CLOUDY    62  55  76 CALM      29.85F
WATERTOWN      CLOUDY    62  56  81 CALM      29.87S
MONROE         CLOUDY    63  55  77 SE6       29.85F
JANESVILLE     CLOUDY    64  54  68 SE8       29.85F
$$

WIZ051-052-058>065-066-070>072-020800-
SOUTHEAST WISCONSIN

CITY           SKY/WX    TMP DP  RH WIND       PRES   REMARKS
MILWAUKEE      CLOUDY    63  54  72 S10       29.88F
WAUKESHA       CLOUDY    61  52  72 S7        29.90S
MILWAUKEE/TIMM CLOUDY    63  52  67 S6        29.90R
RACINE         CLOUDY    63  55  75 S13G18    29.91S
BURLINGTON     CLOUDY    61  53  75 S6        29.88S
KENOSHA        NOT AVBL
FOND DU LAC    CLOUDY    59  55  87 SE5       29.86F
SHEBOYGAN      CLOUDY    61  56  83 S9        29.89S
WEST BEND      LGT RAIN  59  52  77 S3        29.89S
JUNEAU         CLOUDY    61  54  78 SE8       29.88S
$$

LSZ147-162-020800-
LAKE SUPERIOR

STATION/POSITION TIME  TEMP    WIND        PRES    WAVE
                       AIR SEA DIR/SP/G            HT/PER
                 (UTC) (F)     (DEG/KT/KT) (MB)    (FT/S)
W MID LAKE BUOY  0550   51 49  170/  4/  6 1010.7R   0
DEVILS ISLAND    0600   54     250/  6/  6 1010.7S
SAXON HARBOR     0600   53        CALM     1010.5S
$$

LMZ867-665-643>646-020800-
LAKE MICHIGAN

STATION/POSITION TIME  TEMP    WIND        PRES    WAVE
                       AIR SEA DIR/SP/G            HT/PER
                 (UTC) (F)     (DEG/KT/KT) (MB)    (FT/S)
CHAMBERS ISLAND  0600   56     140/  3/  8 1012.9F
S GREEN BAY BUOY 0600   58                 1013.5R
N MID LAKE BUOY  0550   58 58  160/ 12/ 14 1013.3F   2/ 5
NORTHPORT PIER   0600   56     150/  8/ 11 1013.2S
KEWAUNEE LAKESHO 0606   56     140/  1/  4 1011.8F
SHEBOYGAN LAKESH 0600   58 56  170/  7/  9 1012.6F
PORT WASHINGTON  0600   59     180/  4/  6 1012.9
ATWATER BUOY     0600   61     170/ 12/ 14 1013.2F
MILWAUKEE LAKESH 0600   61     150/ 11/ 13   N/A
S MID LAKE BUOY  0550   63 62  150/ 16/ 17 1012.8F   3/ 4
KENOSHA   LAKESH 0600   62     170/ 13/ 15 1012.2S
$$

TC  - TEMPERATURE IN CELSIUS
VSB - VISIBILITY IN STATUTE MILES
WCI - WIND CHILL INDEX
HX  - HEAT INDEX



USA.gov is the U.S. government's official web portal to all federal, state and local government web resources and services.